This is the latest recevied weather packets stored in our database for station/object KC1BRV. If no packets are shown the sender has not sent any weather packets the latest 10 day(s).
| Time | Temp. | Humidity | Pressure | Rain* | Wind** | Luminosity | Snow |
|---|---|---|---|---|---|---|---|
| 1777737425 | 13.33° C | 69% | 1012.6 hPa | 0 mm | - | 64 W/m² | - |
| 1777737117 | 13.33° C | 70% | 1012.7 hPa | 0 mm | - | 108 W/m² | - |
| 1777736812 | 13.33° C | 69% | 1012.8 hPa | 0 mm | - | 116 W/m² | - |
| 1777736189 | 13.33° C | 68% | 1013 hPa | 0 mm | - | 72 W/m² | - |
| 1777735886 | 13.89° C | 69% | 1012.5 hPa | 0 mm | - | 61 W/m² | - |
| 1777735583 | 13.33° C | 68% | 1012.6 hPa | 0 mm | - | 170 W/m² | - |
| 1777735280 | 13.33° C | 68% | 1012.8 hPa | 0 mm | - | 180 W/m² | - |
| 1777734978 | 13.33° C | 70% | 1012.6 hPa | 0 mm | - | 176 W/m² | - |
| 1777734675 | 13.33° C | 69% | 1012.8 hPa | 0 mm | - | 181 W/m² | - |
| 1777734373 | 13.33° C | 71% | 1013.1 hPa | 0 mm | - | 64 W/m² | - |
| 1777734069 | 12.78° C | 71% | 1012.7 hPa | 0 mm | - | 144 W/m² | - |
| 1777733765 | 12.78° C | 70% | 1012.9 hPa | 0 mm | - | 104 W/m² | - |
| 1777733462 | 13.33° C | 69% | 1012.9 hPa | 0 mm | - | 61 W/m² | - |
| 1777733158 | 13.33° C | 70% | 1012.6 hPa | 0 mm | - | 256 W/m² | - |
| 1777732854 | 12.78° C | 70% | 1012.9 hPa | 0 mm | - | 212 W/m² | - |
| 1777732551 | 12.78° C | 69% | 1013.2 hPa | 0 mm | - | 241 W/m² | - |
| 1777732249 | 12.78° C | 72% | 1012.9 hPa | 0 mm | - | 234 W/m² | - |
| 1777731946 | 12.22° C | 72% | 1013.2 hPa | 0 mm | - | 280 W/m² | - |
| 1777731642 | 12.22° C | 72% | 1013.1 hPa | 0 mm | - | 115 W/m² | - |
| 1777731340 | 12.78° C | 71% | 1013.1 hPa | 0 mm | - | 83 W/m² | - |
| 1777731038 | 12.78° C | 70% | 1012.9 hPa | 0 mm | - | 76 W/m² | - |
| 1777730736 | 12.78° C | 72% | 1012.9 hPa | 0 mm | - | 229 W/m² | - |
| 1777730432 | 12.78° C | 72% | 1012.9 hPa | 0 mm | - | 250 W/m² | - |
| 1777730127 | 12.78° C | 71% | 1013 hPa | 0 mm | - | 179 W/m² | - |
| 1777729825 | 12.78° C | 72% | 1013 hPa | 0 mm | - | 223 W/m² | - |
* Rain latest hour (hover to see other rain measurements)
** Current wind speed in m/s (hover to see current wind gust speed)